Weather History for Warroad, MN

Change the Weather History Date:

Tuesday, November 19, 2013

  Actual Average Record
Temperature  
Mean Temperature 28 °F -  
Max Temperature 37 °F 29 °F 51 °F (1963)
Min Temperature 19 °F 15 °F -13 °F (1978)
Degree Days  
Heating Degree Days 37    
Moisture  
Dew Point 23 °F    
Average Humidity 79    
Maximum Humidity 93    
Minimum Humidity 65    
Precipitation  
Precipitation 0.00 in - - ()
Sea Level Pressure  
Sea Level Pressure 29.85 in    
Wind  
Wind Speed 11 mph (SE)    
Max Wind Speed 24 mph    
Max Gust Speed 31 mph    
Visibility 10 miles    
Events      
Averages and records for this station are not official NWS values.
T = Trace of Precipitation, MM = Missing Value Source: NWS Daily Summary

Daily Weather History Graph

Daily Weather History Graph

Search for Another Location

Airport:

Trip Planner

Search our weather history database for the weather conditions in past years. The results will help you decide how hot, cold, wet, or windy it might be!

Date:

Astronomy

Nov. 19, 2013 Rise Set
Actual Time 7:37 AM CST 4:35 PM CST
Civil Twilight 7:02 AM CST 5:11 PM CST
Nautical Twilight 6:23 AM CST 5:49 PM CST
Astronomical Twilight 5:45 AM CST 6:27 PM CST
Moon 6:26 PM CST (11/19) 9:19 AM CST (11/19)
Length of Visible Light 10h 08m
Length of Day
8h 58m
Waning Gibbous, 96% of the Moon is Illuminated
Nov 19
Waning Gibbous
Nov 25
Last Quarter
Dec 2
New
Dec 9
First Quarter
Dec 17
Full

Hourly Weather History & Observations

Time (CST) Temp. Windchill Dew Point Humidity Pressure Visibility Wind Dir Wind Speed Gust Speed Precip Events Conditions
12:14 AM 19.4 °F 9.5 °F 17.6 °F 93% 30.18 in 10.0 mi SSE 8.1 mph - N/A   Overcast
12:34 AM 21.2 °F 10.9 °F 17.6 °F 86% 30.17 in 10.0 mi SE 9.2 mph - N/A   Overcast
12:54 AM 21.2 °F 10.9 °F 17.6 °F 86% 30.17 in 10.0 mi SSE 9.2 mph - N/A   Overcast
1:14 AM 21.2 °F 10.9 °F 17.6 °F 86% 30.16 in 10.0 mi SSE 9.2 mph - N/A   Overcast
1:34 AM 21.2 °F 11.7 °F 17.6 °F 86% 30.15 in 10.0 mi SE 8.1 mph - N/A   Overcast
1:54 AM 19.4 °F 12.8 °F 17.6 °F 93% 30.15 in 10.0 mi SE 4.6 mph - N/A   Overcast
2:14 AM 19.4 °F 9.5 °F 17.6 °F 93% 30.13 in 10.0 mi ESE 8.1 mph - N/A   Scattered Clouds
2:34 AM 21.2 °F 12.6 °F 17.6 °F 86% 30.13 in 10.0 mi ESE 6.9 mph - N/A   Clear
2:54 AM 21.2 °F 10.9 °F 17.6 °F 86% 30.12 in 10.0 mi ESE 9.2 mph - N/A   Mostly Cloudy
3:14 AM 21.2 °F 11.7 °F 17.6 °F 86% 30.11 in 10.0 mi SE 8.1 mph - N/A   Overcast
3:34 AM 21.2 °F 11.7 °F 17.6 °F 86% 30.11 in 10.0 mi ESE 8.1 mph - N/A   Scattered Clouds
3:54 AM 21.2 °F 10.9 °F 17.6 °F 86% 30.11 in 10.0 mi ESE 9.2 mph - N/A   Clear
4:14 AM 21.2 °F 11.7 °F 17.6 °F 86% 30.10 in 10.0 mi ESE 8.1 mph - N/A   Clear
4:34 AM 21.2 °F 10.9 °F 17.6 °F 86% 30.09 in 10.0 mi ESE 9.2 mph - N/A   Clear
4:54 AM 21.2 °F 10.9 °F 17.6 °F 86% 30.08 in 10.0 mi ESE 9.2 mph - N/A   Clear
5:14 AM 19.4 °F 7.9 °F 17.6 °F 93% 30.08 in 10.0 mi ESE 10.4 mph - N/A   Clear
5:34 AM 19.4 °F 7.9 °F 15.8 °F 86% 30.07 in 10.0 mi ESE 10.4 mph - N/A   Clear
5:54 AM 19.4 °F 8.6 °F 17.6 °F 93% 30.06 in 10.0 mi ESE 9.2 mph - N/A   Clear
6:13 AM 19.4 °F 6.6 °F 17.6 °F 93% 30.05 in 10.0 mi ESE 12.7 mph - N/A   Clear
6:34 AM 21.2 °F 10.1 °F 17.6 °F 86% 30.05 in 10.0 mi ESE 10.4 mph - N/A   Clear
6:54 AM 21.2 °F 8.9 °F 17.6 °F 86% 30.03 in 10.0 mi ESE 12.7 mph - N/A   Clear
7:14 AM 21.2 °F 9.5 °F 17.6 °F 86% 30.03 in 10.0 mi ESE 11.5 mph - N/A   Clear
7:34 AM 21.2 °F 8.9 °F 17.6 °F 86% 30.01 in 10.0 mi ESE 12.7 mph - N/A   Clear
7:54 AM 21.2 °F 11.7 °F 17.6 °F 86% 30.01 in 10.0 mi ESE 8.1 mph - N/A   Clear
8:14 AM 21.2 °F 11.7 °F 17.6 °F 86% 30.00 in 10.0 mi SE 8.1 mph - N/A   Clear
8:34 AM 21.2 °F 10.1 °F 17.6 °F 86% 29.99 in 10.0 mi SE 10.4 mph - N/A   Clear
8:54 AM 21.2 °F 10.1 °F 17.6 °F 86% 29.98 in 10.0 mi SE 10.4 mph - N/A   Clear
9:14 AM 23.0 °F 12.4 °F 19.4 °F 86% 29.97 in 10.0 mi ESE 10.4 mph - N/A   Clear
9:34 AM 24.8 °F 14.6 °F 19.4 °F 80% 29.96 in 10.0 mi SE 10.4 mph - N/A   Clear
9:54 AM 24.8 °F 15.3 °F 19.4 °F 80% 29.96 in 10.0 mi SE 9.2 mph - N/A   Clear
10:14 AM 26.6 °F 16.2 °F 19.4 °F 74% 29.95 in 10.0 mi SE 11.5 mph - N/A   Clear
10:34 AM 26.6 °F 16.2 °F 21.2 °F 80% 29.94 in 10.0 mi SE 11.5 mph - N/A   Clear
10:54 AM 26.6 °F 16.8 °F 21.2 °F 80% 29.92 in 10.0 mi SE 10.4 mph - N/A   Clear
11:14 AM 28.4 °F 19.1 °F 21.2 °F 74% 29.90 in 10.0 mi SE 10.4 mph - N/A   Clear
11:34 AM 28.4 °F 18.0 °F 21.2 °F 74% 29.88 in 10.0 mi SE 12.7 mph - N/A   Clear
11:54 AM 28.4 °F 18.0 °F 21.2 °F 74% 29.87 in 10.0 mi SE 12.7 mph - N/A   Clear
12:14 PM 30.2 °F 18.9 °F 21.2 °F 69% 29.84 in 10.0 mi SE 16.1 mph - N/A   Clear
12:34 PM 30.2 °F 19.8 °F 21.2 °F 69% 29.82 in 10.0 mi SE 13.8 mph 18.4 mph N/A   Clear
12:54 PM 30.2 °F 18.9 °F 23.0 °F 75% 29.80 in 10.0 mi SE 16.1 mph - N/A   Clear
1:14 PM 30.2 °F 20.2 °F 21.2 °F 69% 29.79 in 10.0 mi SE 12.7 mph - N/A   Clear
1:34 PM 32.0 °F 22.1 °F 23.0 °F 69% 29.76 in 10.0 mi SE 13.8 mph 20.7 mph N/A   Clear
1:54 PM 32.0 °F 22.1 °F 23.0 °F 69% 29.75 in 10.0 mi SE 13.8 mph - N/A   Clear
2:14 PM 33.8 °F 24.3 °F 23.0 °F 65% 29.75 in 10.0 mi SE 13.8 mph 17.3 mph N/A   Clear
2:34 PM 33.8 °F 23.5 °F 23.0 °F 65% 29.72 in 10.0 mi SE 16.1 mph - N/A   Clear
2:53 PM 33.8 °F 23.2 °F 24.8 °F 70% 29.70 in 10.0 mi SE 17.3 mph 21.9 mph N/A   Clear
3:14 PM 33.8 °F 24.3 °F 24.8 °F 70% 29.69 in 10.0 mi SE 13.8 mph - N/A   Clear
3:34 PM 33.8 °F 24.3 °F 24.8 °F 70% 29.69 in 10.0 mi SE 13.8 mph 19.6 mph N/A   Clear
3:54 PM 33.8 °F 21.9 °F 24.8 °F 70% 29.67 in 10.0 mi SE 21.9 mph - N/A   Clear
4:14 PM 33.8 °F 24.8 °F 24.8 °F 70% 29.67 in 10.0 mi SSE 12.7 mph 25.3 mph N/A   Clear
4:34 PM 33.8 °F 25.3 °F 26.6 °F 75% 29.67 in 10.0 mi SE 11.5 mph 23.0 mph N/A   Clear
4:54 PM 33.8 °F 25.3 °F 26.6 °F 75% 29.66 in 10.0 mi SSE 11.5 mph 17.3 mph N/A   Clear
5:14 PM 35.6 °F 26.6 °F 26.6 °F 70% 29.66 in 10.0 mi SSE 13.8 mph - N/A   Clear
5:33 PM 35.6 °F 25.5 °F 26.6 °F 70% 29.66 in 10.0 mi SSE 17.3 mph - N/A   Clear
5:54 PM 35.6 °F 25.9 °F 26.6 °F 70% 29.65 in 10.0 mi SSE 16.1 mph 25.3 mph N/A   Clear
6:14 PM 35.6 °F 25.5 °F 28.4 °F 75% 29.65 in 10.0 mi SSE 17.3 mph 23.0 mph N/A   Clear
6:33 PM 35.6 °F 24.8 °F 28.4 °F 75% 29.64 in 10.0 mi SSE 19.6 mph 25.3 mph N/A   Clear
6:54 PM 35.6 °F 25.2 °F 28.4 °F 75% 29.63 in 10.0 mi SSE 18.4 mph 24.2 mph N/A   Clear
7:14 PM 35.6 °F 25.9 °F 28.4 °F 75% 29.62 in 10.0 mi SSE 16.1 mph 24.2 mph N/A   Clear
7:33 PM 35.6 °F 25.9 °F 28.4 °F 75% 29.61 in 10.0 mi SSE 16.1 mph 24.2 mph N/A   Clear
7:54 PM 37.4 °F 26.9 °F 28.4 °F 70% 29.59 in 10.0 mi SSE 20.7 mph 26.5 mph N/A   Clear
8:14 PM 37.4 °F 26.1 °F 28.4 °F 70% 29.57 in 10.0 mi SSE 24.2 mph 31.1 mph N/A   Scattered Clouds
8:33 PM 37.4 °F 26.9 °F 30.2 °F 75% 29.58 in 10.0 mi SSE 20.7 mph 26.5 mph N/A   Scattered Clouds
8:54 PM 37.4 °F 28.2 °F 30.2 °F 75% 29.57 in 10.0 mi SSE 16.1 mph 24.2 mph N/A   Clear
9:14 PM 37.4 °F 28.2 °F 30.2 °F 75% 29.57 in 10.0 mi SSE 16.1 mph 24.2 mph N/A   Clear
9:34 PM 37.4 °F 28.2 °F 30.2 °F 75% 29.57 in 10.0 mi SSE 16.1 mph 20.7 mph N/A   Clear
9:54 PM 37.4 °F 29.3 °F 30.2 °F 75% 29.57 in 10.0 mi South 12.7 mph - N/A   Clear
10:14 PM 37.4 °F 29.3 °F 30.2 °F 75% 29.56 in 10.0 mi SSE 12.7 mph - N/A   Clear
10:34 PM 37.4 °F 29.8 °F 30.2 °F 75% 29.56 in 10.0 mi South 11.5 mph 16.1 mph N/A   Clear
10:54 PM 37.4 °F 30.3 °F 30.2 °F 75% 29.56 in 10.0 mi South 10.4 mph - N/A   Clear
11:14 PM 37.4 °F 32.1 °F 30.2 °F 75% 29.56 in 10.0 mi South 6.9 mph - N/A   Clear
11:34 PM 35.6 °F 30.7 °F 30.2 °F 81% 29.57 in 10.0 mi SW 5.8 mph - N/A   Clear
11:53 PM 35.6 °F 31.7 °F 30.2 °F 81% 29.59 in 10.0 mi WSW 4.6 mph - N/A   Clear